Beatrice, NE

9:53 AM CDT on April 28, 2017 (GMT -0500)
Beatrice Municipal

Weather History for KBIE - January, 1998

Change the Weather History Date:

Tuesday, January 13, 1998

  Actual Average Record
Temperature  
Mean Temperature 11 °F -  
Max Temperature 19 °F 35 °F 58 °F (1980)
Min Temperature 3 °F 12 °F -11 °F (1964)
Degree Days  
Heating Degree Days 54    
Moisture  
Dew Point 4 °F    
Average Humidity 71    
Maximum Humidity 86    
Minimum Humidity 53    
Precipitation  
Precipitation 0.00 in - - ()
Sea Level Pressure  
Sea Level Pressure 30.28 in    
Wind  
Wind Speed 6 mph (ESE)    
Max Wind Speed 12 mph    
Max Gust Speed 18 mph    
Visibility 10 miles    
Events      
Averages and records for this station are not official NWS values.
T = Trace of Precipitation, MM = Missing Value Source: NWS Daily Summary

Daily Weather History Graph

Daily Weather History Graph

Search for Another Location

Airport or City:

Trip Planner

Search our weather history database for the weather conditions in past years. The results will help you decide how hot, cold, wet, or windy it might be!

Date:

Astronomy

Jan. 13, 1998 Rise Set
Actual Time 7:48 AM CST 5:23 PM CST
Civil Twilight 7:18 AM CST 5:53 PM CST
Nautical Twilight 6:44 AM CST 6:26 PM CST
Astronomical Twilight 6:12 AM CST 6:59 PM CST
Moon 6:42 PM CST (1/13) 8:12 AM CST (1/13)
Length of Visible Light 10h 34m
Length of Day
9h 34m
Full, 99% of the Moon is Illuminated
Jan 13
Full
Jan 20
Last Quarter
Jan 28
New
Feb 3
First Quarter
Feb 11
Full

Hourly Weather History & Observations

Time (CST) Temp. Windchill Dew Point Humidity Pressure Visibility Wind Dir Wind Speed Gust Speed Precip Events Conditions
12:30 AM 3.2 °F -7.8 °F -0.4 °F 85% 30.34 in 10.0 mi North 5.8 mph - N/A   Clear
12:51 AM 3.2 °F -7.8 °F -0.4 °F 85% 30.34 in 10.0 mi North 5.8 mph - N/A   Clear
1:30 AM 3.2 °F -9.1 °F -2.2 °F 78% 30.34 in 10.0 mi North 6.9 mph - N/A   Clear
1:54 AM 3.2 °F -6.2 °F -2.2 °F 78% 30.34 in 10.0 mi North 4.6 mph - N/A   Clear
2:10 AM 3.2 °F -7.8 °F -0.4 °F 85% 30.35 in 10.0 mi North 5.8 mph - N/A   Clear
2:30 AM 3.2 °F -9.1 °F -2.2 °F 78% 30.35 in 10.0 mi North 6.9 mph - N/A   Clear
2:51 AM 3.2 °F -9.1 °F -0.4 °F 85% 30.35 in 10.0 mi NNE 6.9 mph - N/A   Clear
3:10 AM 3.2 °F - -2.2 °F 78% 30.36 in 10.0 mi Calm Calm - N/A   Clear
3:33 AM 3.2 °F -4.2 °F -4.0 °F 72% 30.38 in 10.0 mi NNE 3.5 mph - N/A   Clear
3:50 AM 3.2 °F -7.8 °F -0.4 °F 85% 30.36 in 10.0 mi NNE 5.8 mph - N/A   Clear
4:32 AM 3.2 °F - -2.2 °F 78% 30.36 in 10.0 mi Calm Calm - N/A   Clear
4:54 AM 3.2 °F - -4.0 °F 72% 30.37 in 10.0 mi Calm Calm - N/A   Clear
5:10 AM 3.2 °F - -0.4 °F 85% 30.36 in 10.0 mi Calm Calm - N/A   Clear
5:51 AM 3.2 °F -4.2 °F -2.2 °F 78% 30.35 in 10.0 mi East 3.5 mph - N/A   Clear
6:10 AM 3.2 °F -6.2 °F -2.2 °F 78% 30.35 in 10.0 mi East 4.6 mph - N/A   Clear
6:30 AM 3.2 °F -6.2 °F -5.8 °F 66% 30.35 in 10.0 mi ESE 4.6 mph - N/A   Clear
7:13 AM 3.2 °F -9.1 °F -4.0 °F 72% 30.35 in 10.0 mi ESE 6.9 mph - N/A   Clear
8:14 AM 3.2 °F -7.8 °F -5.8 °F 66% 30.38 in 10.0 mi ESE 5.8 mph - N/A   Clear
8:30 AM 3.2 °F -9.1 °F -2.2 °F 78% 30.37 in 10.0 mi SE 6.9 mph - N/A   Clear
9:11 AM 6.8 °F -5.9 °F -0.4 °F 72% 30.36 in 10.0 mi East 8.1 mph - N/A   Clear
9:50 AM 6.8 °F -4.8 °F 1.4 °F 79% 30.37 in 10.0 mi East 6.9 mph - N/A   Clear
10:11 AM 8.6 °F -2.6 °F -0.4 °F 67% 30.37 in 10.0 mi ESE 6.9 mph - N/A   Clear
10:30 AM 8.6 °F -4.7 °F -0.4 °F 67% 30.37 in 10.0 mi ESE 9.2 mph - N/A   Clear
10:50 AM 10.4 °F -1.5 °F 1.4 °F 67% 30.37 in 10.0 mi SE 8.1 mph - N/A   Clear
11:14 AM 10.4 °F -3.3 °F 3.2 °F 73% 30.36 in 10.0 mi SE 10.4 mph - N/A   Clear
11:30 AM 12.2 °F 1.7 °F 1.4 °F 62% 30.36 in 10.0 mi ESE 6.9 mph - N/A   Clear
11:51 AM 12.2 °F -0.2 °F 3.2 °F 67% 30.35 in 10.0 mi SE 9.2 mph - N/A   Clear
12:10 PM 12.2 °F -1.0 °F 5.0 °F 73% 30.34 in 10.0 mi SSE 10.4 mph - N/A   Clear
12:30 PM 14.0 °F 3.9 °F 1.4 °F 57% 30.33 in 10.0 mi SE 6.9 mph - N/A   Clear
1:13 PM 15.8 °F 7.2 °F 6.8 °F 68% 30.28 in 10.0 mi SE 5.8 mph - N/A   Clear
1:51 PM 17.6 °F 6.4 °F 3.2 °F 53% 30.26 in 10.0 mi ESE 9.2 mph - N/A   Clear
2:30 PM 17.6 °F 5.0 °F 6.8 °F 63% 30.25 in 10.0 mi ESE 11.5 mph 16.1 mph N/A   Clear
2:51 PM 17.6 °F 7.3 °F 5.0 °F 58% 30.24 in 10.0 mi ESE 8.1 mph - N/A   Clear
3:09 PM 19.4 °F 7.9 °F 6.8 °F 58% 30.23 in 10.0 mi ESE 10.4 mph - N/A   Clear
3:31 PM 19.4 °F 10.4 °F 6.8 °F 58% 30.22 in 10.0 mi East 6.9 mph - N/A   Clear
3:50 PM 19.4 °F 8.6 °F 6.8 °F 58% 30.22 in 10.0 mi ESE 9.2 mph - N/A   Clear
4:31 PM 19.4 °F 9.5 °F 8.6 °F 63% 30.21 in 10.0 mi East 8.1 mph - N/A   Clear
4:51 PM 17.6 °F 7.3 °F 6.8 °F 63% 30.21 in 10.0 mi ESE 8.1 mph - N/A   Clear
5:09 PM 17.6 °F 5.7 °F 6.8 °F 63% 30.20 in 10.0 mi SE 10.4 mph - N/A   Clear
5:31 PM 17.6 °F 8.2 °F 8.6 °F 68% 30.19 in 10.0 mi ESE 6.9 mph - N/A   Clear
5:52 PM 17.6 °F 7.3 °F 8.6 °F 68% 30.19 in 10.0 mi ESE 8.1 mph - N/A   Clear
6:09 PM 15.8 °F 6.1 °F 8.6 °F 73% 30.17 in 10.0 mi East 6.9 mph - N/A   Clear
6:54 PM 15.8 °F 7.2 °F 10.4 °F 79% 30.16 in 10.0 mi East 5.8 mph - N/A   Clear
7:30 PM 17.6 °F 5.0 °F 8.6 °F 68% 30.15 in 10.0 mi East 11.5 mph - N/A   Overcast
7:49 PM 17.6 °F 7.3 °F 8.6 °F 68% 30.16 in 10.0 mi ESE 8.1 mph - N/A   Overcast
8:29 PM 19.4 °F 8.6 °F 10.4 °F 68% 30.15 in 10.0 mi ESE 9.2 mph - N/A   Overcast
8:51 PM 19.4 °F 7.9 °F 8.6 °F 63% 30.15 in 10.0 mi SE 10.4 mph - N/A   Overcast
9:11 PM 19.4 °F 8.6 °F 6.8 °F 58% 30.14 in 10.0 mi ESE 9.2 mph - N/A   Overcast
9:31 PM 19.4 °F 7.9 °F 10.4 °F 68% 30.15 in 10.0 mi SE 10.4 mph 18.4 mph N/A   Overcast
9:49 PM 19.4 °F 7.9 °F 12.2 °F 74% 30.14 in 10.0 mi SE 10.4 mph - N/A   Overcast
10:11 PM 19.4 °F 9.5 °F 12.2 °F 74% 30.15 in 10.0 mi SE 8.1 mph - N/A   Overcast
10:51 PM 19.4 °F 11.5 °F 14.0 °F 80% 30.15 in 10.0 mi SE 5.8 mph - N/A   Overcast
11:09 PM 19.4 °F 9.5 °F 12.2 °F 74% 30.15 in 10.0 mi ESE 8.1 mph - N/A   Overcast
11:33 PM 19.4 °F 8.6 °F 15.8 °F 86% 30.14 in 10.0 mi SE 9.2 mph - N/A   Overcast